Location: Sawmill Trailhead
(33.5800°N, 116.4497°W)
Time: 00:13:02
(UTC-07:00)

Uosat F - Visible Passes

Search period start: 29 August 2016 00:00
Search period end: 08 September 2016 00:00
Orbit: 750 x 762 km, 98.8° (Epoch: 28 August)

Date Brightness Start Highest point End Pass type
(mag) Time Alt. Az. Time Alt. Az. Time Alt. Az.
02 Sep 14.2 05:41:41 10° ENE 05:44:16 14° E 05:46:51 10° SE visible
03 Sep 14.3 19:29:33 10° WSW 19:31:58 13° W 19:34:22 10° WNW visible
07 Sep 14.2 05:42:04 10° ENE 05:44:38 14° E 05:47:11 10° SE visible
